International Virtual Aviation Organisation

Russian Federation and Kazakhstan MCD

 

Карточка аэропорта UWOO

Внимание!
Информация на этой странице в стадии наполнения.
Если вы не увидели какой-то информации, или заметили неточность - пожалуйста сообщите нам!
Спасибо!
Команда RU-STAFF
Название аэропортаОренбург
Название аэропорта (англ.)Orenburg
Превышение387 ft. (118 m.)
Координаты51°48', 55°27'
Высота перехода700m
Эшелон переходаBy ATC
Коды ответчика2440-2443
Зона ОрВДСамара РПИ (UWWW)
Данные METARUWOO 041200Z 34001MPS 7000 NSC M17/M21 Q1042 R08/820250 NOSIG RMK QFE771/1028
Проноз погоды (TAF)UWOO 041050Z 0412/0512 36003G08MPS 6000 FEW005 BKN016 TXM13/0510Z TNM23/0503Z TEMPO 0412/0506 02003MPS 0300 FZFG VV002 BECMG 0506/0507 03003G08MPS
NOTAMshow/hide NOTAM
AWOS   TABLE

Информация о ВПП

ВПП Длина ВПП (м.) Покрытие Курс ВПП Частота ILS
082501Асфальтобетон79109
262501Асфальтобетон259109.3

Диспетчерские позиции

Позывной Наименование органа УВД Частота
UWOO_R_APPОренбург - Круг120.400
UWOO_TWRОренбург-Старт128.0



Спутниковое изображение